Wind_Speed
11 10 10 8 7 6 5 4 3 2 2 3 5 7 10 12 15 17 18 18 18 19 18 18 18 18 17 16 15 14 13 12 13 14 15 18 19 19 18 17 15 13 12
14 13 12 12 11 9 8 7 6 5 5 5 6 7 10 12 15 18 20 21 22 23 23 23 23 22 22 21 20 19 17 16 15 15 16 18 20 21 21 19 17 15 14
16 15 15 14 14 13 11 10 10 9 8 8 8 9 10 12 15 18 21 23 24 26 27 27 27 27 26 25 24 23 22 20 19 18 18 19 20 22 23 21 20 17 16
18 18 17 17 17 16 15 15 14 13 12 12 12 12 13 14 16 18 21 23 25 27 28 28 29 29 28 27 26 25 24 24 22 21 20 20 19 21 23 23 22 19 17
20 20 19 20 19 19 19 18 17 16 16 16 16 16 16 17 18 20 21 23 25 27 28 28 29 29 28 27 26 25 25 25 24 23 22 21 20 20 21 23 23 21 18
23 22 21 22 22 22 21 20 19 19 19 20 20 20 20 20 20 21 23 24 25 27 28 28 28 28 27 26 25 25 24 24 24 24 23 22 21 20 21 22 22 20 18
25 24 24 23 23 23 22 22 22 22 22 23 23 23 23 24 24 23 24 24 25 26 27 28 27 27 27 26 25 24 24 24 24 24 24 23 22 21 21 21 21 20 19
28 26 25 24 23 23 23 23 24 24 25 26 26 26 26 26 26 25 25 25 25 26 26 27 27 26 26 25 24 24 24 23 23 23 24 23 23 22 22 22 21 21 21
30 28 27 26 25 25 25 25 25 26 27 28 28 28 28 28 28 27 26 26 26 25 26 26 26 25 25 25 24 24 24 24 24 24 24 24 24 24 24 24 22 22 22
31 30 28 27 25 25 25 25 26 26 27 27 28 28 29 30 30 30 29 28 27 26 26 25 25 24 24 24 24 24 25 25 25 25 25 25 25 25 26 25 25 24 23
32 31 30 27 25 25 26 26 26 26 27 28 28 29 29 30 31 31 31 30 29 28 26 26 25 25 25 24 24 25 26 26 26 26 26 26 26 27 27 27 27 26 26
33 32 29 27 25 25 26 26 26 26 27 27 28 28 29 30 30 30 31 31 30 28 26 25 25 25 25 24 25 25 26 26 27 26 26 26 27 27 27 28 28 28 28
32 30 27 25 24 24 25 26 27 27 27 27 28 28 28 28 28 28 29 29 29 28 26 25 25 25 25 24 24 25 26 27 27 28 28 27 27 27 28 27 28 28 28
30 26 24 22 23 24 25 27 27 27 27 27 27 27 26 26 26 26 27 27 27 27 27 26 25 26 26 24 24 25 26 27 27 28 29 29 28 28 28 27 27 27 26
25 22 21 21 23 24 26 27 27 27 27 26 25 25 24 24 24 24 25 25 25 26 26 26 24 24 25 25 24 24 26 26 27 28 29 29 29 28 28 27 26 26 25
18 17 18 21 22 23 24 25 25 24 24 24 23 23 22 22 22 22 22 22 22 23 24 26 26 25 25 25 24 23 23 24 25 26 27 28 29 29 28 27 26 25 25
15 17 19 20 21 21 22 22 22 21 21 21 21 21 20 20 20 19 20 19 20 21 22 23 24 24 24 25 25 23 22 22 23 23 24 25 27 27 28 27 27 26 25
13 16 18 20 20 20 20 19 19 19 19 20 20 20 19 19 18 18 18 18 18 19 21 22 22 23 24 25 25 25 23 22 21 21 22 22 23 25 26 27 27 27 26
13 15 16 17 18 18 18 18 19 19 19 19 19 20 19 19 18 18 17 18 18 18 20 22 23 24 24 26 27 27 25 24 23 22 21 21 22 22 24 25 25 26 26
12 13 15 17 18 18 19 19 20 20 20 20 20 20 20 20 19 18 17 17 18 17 18 19 21 23 23 25 27 28 29 28 27 26 24 24 23 23 24 24 25 25 26
12 14 16 17 18 19 19 20 20 20 20 20 20 21 20 21 20 20 19 18 18 18 19 19 20 21 22 24 26 28 29 31 30 29 28 28 27 26 26 26 26 26 27
15 16 18 19 20 21 21 21 21 21 21 21 21 21 21 22 22 21 21 21 20 20 19 20 20 21 21 21 23 26 28 30 31 31 32 31 30 30 30 30 30 29 29
17 19 20 21 22 22 23 22 22 22 23 22 22 22 23 23 23 23 22 23 22 22 21 21 21 21 21 21 21 23 25 27 30 32 33 34 34 34 33 33 33 34 34
20 21 22 23 23 23 24 23 23 23 23 23 23 22 22 22 23 23 23 23 23 23 23 23 22 22 22 23 22 22 23 25 27 29 30 33 36 37 36 35 36 37 37
21 22 23 23 23 24 24 24 24 24 24 24 23 22 22 21 22 23 23 22 22 22 23 23 23 23 23 23 24 24 25 26 26 28 29 31 34 37 38 38 38 38 40
20 21 22 22 23 23 23 23 23 24 24 24 23 22 21 20 20 21 21 21 21 21 21 21 22 22 23 23 24 24 25 26 27 29 30 32 33 34 35 38 39 39 40
Wind_Direction
265 266 269 275 280 284 289 295 302 311 303 279 262 255 252 248 246 245 246 246 245 244 244 245 247 249 250 252 253 256 259 256 249 243 236 231 230 229 229 230 233 238 240
256 258 262 267 270 273 278 281 281 281 279 279 274 268 263 259 255 252 250 250 251 251 251 251 252 252 253 253 254 254 256 256 254 249 243 237 234 231 230 230 232 237 240
252 254 257 262 265 269 270 274 278 280 278 276 276 274 272 269 265 261 258 257 255 255 255 255 255 255 255 255 255 254 254 253 253 251 248 243 240 234 230 229 231 235 240
250 252 256 259 261 264 266 269 274 278 279 279 279 279 276 274 273 270 267 264 261 260 258 257 257 256 256 255 254 254 253 250 250 250 249 247 246 240 233 230 229 233 238
250 252 256 258 259 262 264 267 270 275 277 279 279 279 277 273 274 273 272 269 267 264 262 260 258 256 254 254 254 254 252 249 247 247 248 248 247 243 237 231 229 230 235
252 254 256 257 259 260 262 264 268 273 275 278 279 279 277 274 274 274 274 273 270 267 264 262 260 256 253 252 253 253 251 248 247 246 247 247 246 242 237 232 228 227 233
253 254 255 257 259 260 262 263 268 272 274 276 278 279 277 274 273 275 276 275 273 270 266 263 261 258 253 251 252 253 250 248 245 244 245 245 243 240 236 231 228 229 233
253 254 255 257 258 259 261 264 268 273 275 277 279 279 277 274 273 275 276 276 275 271 267 262 260 257 253 250 251 251 248 245 243 242 243 243 240 238 236 234 233 234 236
251 253 254 256 258 260 262 265 270 273 276 278 278 278 276 277 275 275 276 276 276 272 268 263 259 256 252 250 250 248 245 243 241 242 242 241 239 237 237 236 236 239 239
248 250 253 255 259 261 265 268 272 275 276 278 278 276 274 274 275 275 276 276 276 274 270 263 258 254 250 249 249 247 244 242 241 242 241 240 239 238 238 238 239 241 242
248 250 251 254 258 263 267 271 273 275 276 277 277 276 275 273 274 274 275 275 275 274 271 262 255 251 250 248 247 246 243 241 241 242 242 240 239 239 240 241 243 243 245
250 248 249 253 259 264 269 272 273 274 275 276 276 275 274 273 273 274 274 273 273 272 270 261 254 250 249 249 246 243 243 242 242 243 242 241 240 240 241 242 244 246 247
246 246 249 254 260 265 269 272 273 275 275 276 275 274 273 272 272 272 272 271 270 270 267 260 254 250 248 249 246 244 244 244 245 245 244 243 242 242 242 244 246 248 250
244 245 248 252 258 264 269 272 273 275 275 275 274 273 272 271 270 270 269 269 268 266 263 259 254 249 248 249 248 246 245 246 247 246 246 245 244 244 244 245 246 248 249
239 241 246 255 262 268 271 272 273 274 274 274 273 272 271 270 268 268 267 267 265 264 258 253 254 251 246 246 247 246 245 245 246 246 246 245 244 244 245 245 246 246 247
231 242 254 261 265 268 270 271 272 273 273 272 271 270 269 268 266 266 266 264 262 259 251 249 250 250 245 242 244 246 245 245 245 245 245 244 244 244 245 246 246 246 248
240 251 258 263 265 267 269 271 272 272 272 270 269 268 267 266 265 266 265 263 260 254 249 245 246 245 242 240 241 244 245 246 245 245 245 244 245 246 246 247 248 248 250
254 259 262 265 266 269 272 273 274 273 272 270 268 267 266 264 264 263 262 260 258 255 250 245 242 243 241 237 238 241 244 244 244 244 245 245 246 248 249 250 251 251 251
263 264 267 268 270 273 275 276 276 275 273 271 269 267 265 264 262 261 260 255 254 256 252 245 243 244 243 238 237 239 242 243 244 244 244 246 246 248 249 251 252 252 252
270 272 272 273 274 275 278 279 279 276 273 270 269 266 264 263 262 261 259 256 253 254 253 247 244 244 243 240 239 240 242 244 245 245 245 246 247 248 249 251 252 253 254
276 276 276 276 277 277 279 279 278 277 275 272 269 266 263 262 261 259 258 256 253 253 254 251 248 248 246 245 244 242 243 244 244 246 248 248 248 250 251 252 252 254 255
282 279 278 277 277 277 277 277 277 277 275 273 269 266 263 261 259 257 256 255 253 253 253 251 251 253 251 252 252 249 248 245 245 248 249 248 250 252 253 253 254 255 256
285 282 281 279 278 276 275 274 273 274 273 271 269 266 263 261 260 258 256 254 252 252 253 254 255 256 256 257 259 256 253 252 250 250 250 250 252 254 256 256 256 256 257
286 284 281 279 278 277 276 275 274 273 272 270 268 267 264 261 260 258 256 255 253 252 252 253 255 256 257 258 261 261 259 258 257 256 254 253 253 254 256 257 258 258 258
288 286 283 281 280 279 278 275 273 272 271 269 268 265 263 261 258 256 255 254 254 254 253 254 255 257 258 260 261 262 261 260 259 258 257 259 260 259 258 258 259 260 259
294 290 287 284 283 281 279 276 274 272 270 269 266 263 260 259 256 255 253 252 252 253 254 255 255 257 258 259 261 262 262 262 262 262 262 264 265 264 263 262 262 262 261
Height
5897 5897 5896 5896 5896 5895 5894 5893 5893 5892 5891 5890 5890 5890 5891 5891 5891 5891 5892 5892 5893 5893 5894 5894 5895 5896 5897 5897 5897 5897 5897 5898 5898 5898 5899 5900 5902 5904 5905 5906 5907 5908 5909
5893 5893 5893 5893 5893 5892 5892 5892 5891 5890 5889 5889 5888 5888 5888 5888 5888 5888 5888 5888 5889 5889 5890 5890 5891 5892 5893 5894 5894 5894 5895 5895 5895 5895 5896 5897 5899 5900 5902 5903 5905 5906 5906
5890 5890 5890 5889 5889 5889 5889 5889 5888 5888 5887 5886 5886 5885 5885 5885 5885 5884 5884 5884 5884 5884 5885 5886 5886 5887 5888 5889 5890 5890 5891 5891 5892 5892 5893 5894 5895 5896 5898 5900 5902 5903 5904
5885 5885 5885 5885 5885 5885 5885 5885 5885 5885 5884 5884 5883 5883 5882 5882 5881 5880 5880 5879 5879 5879 5879 5880 5881 5882 5883 5884 5885 5886 5886 5887 5888 5888 5889 5890 5891 5892 5894 5896 5898 5900 5901
5881 5881 5881 5881 5881 5881 5881 5881 5881 5881 5881 5880 5880 5879 5878 5878 5877 5876 5876 5875 5874 5873 5874 5874 5875 5876 5877 5878 5879 5880 5881 5882 5883 5884 5885 5886 5887 5889 5890 5892 5894 5896 5898
5876 5876 5877 5876 5876 5876 5877 5877 5877 5877 5876 5876 5875 5875 5874 5874 5873 5872 5871 5870 5868 5868 5868 5868 5869 5870 5871 5872 5874 5875 5876 5877 5879 5880 5881 5882 5883 5885 5886 5888 5890 5892 5894
5870 5871 5871 5871 5871 5871 5872 5872 5872 5872 5871 5871 5871 5870 5870 5869 5868 5867 5866 5864 5863 5862 5862 5862 5863 5864 5865 5866 5868 5869 5871 5872 5874 5875 5877 5878 5879 5881 5883 5884 5886 5889 5890
5864 5865 5865 5865 5865 5866 5866 5866 5867 5866 5866 5865 5865 5865 5864 5863 5862 5861 5860 5859 5857 5856 5856 5856 5856 5858 5859 5861 5862 5864 5865 5867 5869 5871 5872 5873 5875 5877 5879 5880 5882 5884 5886
5858 5858 5859 5860 5860 5860 5861 5861 5861 5861 5860 5859 5859 5859 5858 5857 5856 5855 5854 5853 5852 5851 5850 5850 5850 5851 5853 5855 5856 5858 5860 5862 5864 5866 5867 5869 5870 5872 5874 5876 5878 5880 5882
5850 5851 5852 5853 5854 5855 5855 5855 5855 5854 5854 5852 5852 5851 5851 5850 5849 5848 5848 5847 5846 5845 5844 5844 5844 5845 5847 5849 5851 5852 5855 5857 5859 5861 5863 5864 5866 5867 5870 5872 5874 5875 5877
5844 5845 5846 5847 5847 5848 5848 5848 5848 5848 5847 5846 5845 5844 5843 5843 5842 5841 5841 5840 5839 5839 5838 5838 5839 5840 5841 5843 5845 5847 5849 5851 5854 5856 5858 5859 5861 5862 5864 5866 5868 5870 5872
5837 5838 5839 5840 5841 5842 5842 5842 5842 5841 5840 5839 5838 5837 5836 5835 5834 5834 5833 5833 5832 5832 5832 5832 5833 5834 5836 5837 5839 5841 5844 5846 5848 5850 5852 5854 5856 5857 5859 5861 5862 5864 5866
5828 5830 5832 5833 5835 5835 5835 5835 5835 5834 5833 5832 5831 5829 5828 5827 5826 5826 5826 5825 5825 5825 5825 5826 5827 5828 5830 5832 5834 5836 5838 5840 5843 5845 5847 5849 5850 5852 5853 5855 5857 5858 5860
5820 5822 5825 5826 5828 5828 5828 5828 5827 5826 5825 5824 5823 5822 5821 5820 5819 5818 5818 5818 5818 5819 5819 5820 5821 5822 5824 5826 5828 5830 5833 5835 5837 5839 5841 5843 5845 5846 5848 5849 5851 5852 5853
5812 5815 5818 5820 5821 5821 5821 5821 5820 5819 5818 5817 5816 5815 5814 5813 5812 5811 5811 5811 5812 5812 5813 5813 5815 5816 5818 5821 5823 5825 5827 5829 5831 5833 5835 5837 5839 5841 5842 5844 5845 5846 5847
5806 5810 5812 5813 5814 5814 5814 5813 5812 5812 5811 5810 5809 5808 5807 5806 5806 5805 5804 5804 5804 5805 5806 5808 5809 5811 5812 5815 5817 5819 5821 5823 5825 5827 5829 5831 5833 5835 5837 5838 5839 5841 5842
5802 5805 5806 5807 5807 5807 5807 5806 5806 5805 5804 5803 5802 5802 5801 5800 5800 5799 5799 5798 5798 5799 5800 5802 5804 5805 5807 5810 5812 5814 5816 5818 5820 5822 5823 5825 5827 5829 5831 5832 5834 5835 5836
5798 5800 5801 5801 5801 5801 5800 5800 5799 5798 5798 5797 5796 5796 5795 5795 5795 5794 5793 5793 5793 5794 5795 5796 5798 5800 5802 5805 5807 5809 5811 5813 5815 5817 5818 5820 5821 5823 5825 5826 5828 5829 5830
5794 5795 5795 5795 5795 5795 5794 5794 5793 5792 5792 5791 5790 5790 5790 5789 5789 5789 5789 5789 5789 5789 5790 5791 5793 5795 5796 5799 5801 5804 5806 5808 5810 5811 5813 5815 5816 5818 5819 5821 5822 5823 5824
5790 5790 5790 5790 5789 5789 5788 5787 5787 5786 5786 5785 5785 5784 5784 5784 5784 5784 5784 5784 5784 5785 5785 5786 5788 5789 5791 5793 5795 5798 5800 5802 5804 5806 5808 5809 5811 5812 5813 5815 5816 5817 5818
5785 5785 5785 5784 5783 5783 5782 5782 5781 5780 5780 5779 5779 5779 5778 5779 5779 5779 5779 5780 5780 5780 5781 5781 5783 5784 5786 5787 5789 5791 5793 5795 5798 5800 5802 5804 5805 5806 5807 5809 5810 5811 5812
5780 5780 5779 5778 5777 5777 5777 5776 5775 5774 5773 5772 5772 5772 5772 5773 5773 5773 5774 5775 5775 5776 5777 5777 5778 5779 5780 5781 5782 5784 5786 5788 5791 5793 5794 5796 5798 5799 5800 5802 5803 5804 5805
5775 5774 5773 5772 5771 5770 5770 5769 5768 5767 5767 5766 5765 5765 5766 5766 5767 5767 5768 5769 5770 5771 5772 5773 5774 5774 5776 5776 5777 5778 5779 5781 5783 5784 5786 5788 5790 5791 5792 5794 5795 5796 5796
5769 5768 5766 5765 5764 5763 5762 5762 5761 5760 5760 5759 5759 5759 5759 5759 5760 5761 5762 5763 5764 5765 5767 5768 5769 5770 5770 5772 5772 5773 5773 5774 5775 5776 5777 5779 5781 5782 5783 5784 5785 5786 5787
5763 5761 5760 5758 5757 5756 5755 5754 5754 5753 5752 5752 5752 5752 5753 5753 5754 5755 5756 5757 5759 5759 5761 5762 5763 5764 5765 5766 5767 5768 5768 5769 5769 5769 5770 5771 5771 5772 5773 5774 5775 5776 5777
5757 5755 5753 5751 5750 5748 5747 5747 5746 5746 5745 5745 5745 5746 5746 5747 5748 5749 5750 5752 5753 5754 5755 5757 5758 5759 5760 5760 5761 5762 5762 5763 5762 5763 5763 5763 5763 5763 5763 5764 5764 5765 5766